Location: Lango�lan
(48.1202°N, 3.2340°W)
Time: 03:11:42
(UTC+00:00)

ADEOS II - Pass Details

Date: 23 October 2019
Orbit: 800 x 800 km, 98.5° (Epoch: 21 November)

Event Time Altitude Azimuth Distance (km) Brightness Sun altitude
Rises 03:51:39 0° 7° (N) 3,323 5.6 -29.1°
Reaches altitude 10° 03:54:09 10° 359° (N) 2,388 4.7 -28.7°
Enters shadow 03:56:02 20° 346° (NNW) 1,766 3.8 -28.4°
